When you browse on this site, cookies collect data to enhance your experience and personalize the content and advertising you see.
Visit our Privacy Policy to learn more. By continuing to use the site, you agree to this use of cookies and data.
  • en Suisse
  • Liste des pays
  • À 7 jours
  • Température de l'eau
  • Carte satellitaire
  • Carte météo
  • Widgets météo
  • user-avatar
    Se connecter

    Météo par heure à Limerick

    Ce jour, 14 Décembre, Vendredi

    Heure Température Précipitation Vent Pression Humidité
    00:00 +6°C° 0.1 mm 5 m/s 759 mmHg 91%
    01:00 +6°C° 0.1 mm 5 m/s 759 mmHg 91%
    02:00 +6°C° 0.1 mm 5 m/s 759 mmHg 92%
    03:00 +6°C° 0 mm 5 m/s 759 mmHg 92%
    04:00 +7°C° 0 mm 5 m/s 759 mmHg 92%
    05:00 +6°C° 0 mm 5 m/s 759 mmHg 91%
    06:00 +7°C° 0 mm 5 m/s 758 mmHg 91%
    07:00 +7°C° 0 mm 5 m/s 758 mmHg 91%
    08:00 +7°C° 0 mm 5 m/s 758 mmHg 91%
    09:00 +7°C° 0.1 mm 6 m/s 758 mmHg 90%
    10:00 +8°C° 0.1 mm 6 m/s 758 mmHg 88%
    11:00 +8°C° 0.1 mm 6 m/s 758 mmHg 87%
    12:00 +8°C° 0.4 mm 6 m/s 757 mmHg 87%
    13:00 +8°C° 0.4 mm 7 m/s 757 mmHg 88%
    14:00 +8°C° 0.4 mm 7 m/s 756 mmHg 89%
    15:00 +8°C° 0.1 mm 7 m/s 756 mmHg 90%
    16:00 +8°C° 0.1 mm 7 m/s 756 mmHg 90%
    17:00 +8°C° 0.1 mm 7 m/s 755 mmHg 91%
    18:00 +9°C° 0.1 mm 7 m/s 755 mmHg 91%
    19:00 +9°C° 0.1 mm 7 m/s 755 mmHg 92%
    20:00 +9°C° 0.1 mm 7 m/s 754 mmHg 92%
    21:00 +9°C° 0.4 mm 6 m/s 754 mmHg 93%
    22:00 +10°C° 0.4 mm 6 m/s 753 mmHg 93%
    23:00 +10°C° 0.4 mm 6 m/s 752 mmHg 94%

    Demain, 15 Décembre, Samedi

    Heure Température Précipitation Vent Pression Humidité
    00:00 +10°C° 2.3 mm 5 m/s 751 mmHg 94%
    01:00 +10°C° 2.3 mm 5 m/s 750 mmHg 95%
    02:00 +10°C° 2.3 mm 5 m/s 749 mmHg 96%
    03:00 +10°C° 1.7 mm 5 m/s 749 mmHg 95%
    04:00 +12°C° 1.7 mm 5 m/s 748 mmHg 95%
    05:00 +12°C° 1.7 mm 5 m/s 747 mmHg 95%
    06:00 +12°C° 0.6 mm 5 m/s 746 mmHg 94%
    07:00 +11°C° 0.6 mm 6 m/s 745 mmHg 94%
    08:00 +11°C° 0.6 mm 6 m/s 743 mmHg 94%
    09:00 +11°C° 2 mm 6 m/s 742 mmHg 94%
    10:00 +11°C° 2 mm 6 m/s 741 mmHg 93%
    11:00 +13°C° 2 mm 6 m/s 740 mmHg 93%
    12:00 +11°C° 1.4 mm 6 m/s 739 mmHg 93%
    13:00 +11°C° 1.4 mm 6 m/s 739 mmHg 92%
    14:00 +10°C° 1.4 mm 6 m/s 738 mmHg 92%
    15:00 +9°C° 0.6 mm 7 m/s 739 mmHg 89%
    16:00 +6°C° 0.6 mm 8 m/s 739 mmHg 87%
    17:00 +5°C° 0.6 mm 8 m/s 740 mmHg 84%
    18:00 +5°C° 0.3 mm 8 m/s 742 mmHg 83%
    19:00 +5°C° 0.3 mm 7 m/s 743 mmHg 82%
    20:00 +5°C° 0.3 mm 6 m/s 745 mmHg 81%
    21:00 +4°C° 0.1 mm 6 m/s 746 mmHg 81%
    22:00 +4°C° 0.1 mm 6 m/s 746 mmHg 82%
    23:00 +5°C° 0.1 mm 5 m/s 747 mmHg 83%

    Après-demain, 16 Décembre, Dimanche

    Heure Température Précipitation Vent Pression Humidité
    00:00 +5°C° 0 mm 5 m/s 747 mmHg 84%
    01:00 +3°C° 0 mm 5 m/s 747 mmHg 85%
    02:00 +4°C° 0 mm 4 m/s 747 mmHg 85%
    03:00 +4°C° 0.1 mm 4 m/s 747 mmHg 86%
    04:00 +4°C° 0.1 mm 4 m/s 747 mmHg 87%
    05:00 +3°C° 0.1 mm 4 m/s 747 mmHg 88%
    06:00 +3°C° 0 mm 4 m/s 748 mmHg 88%
    07:00 +3°C° 0 mm 4 m/s 748 mmHg 88%
    08:00 +3°C° 0 mm 3 m/s 748 mmHg 88%
    09:00 +4°C° 0 mm 4 m/s 748 mmHg 85%
    10:00 +5°C° 0 mm 4 m/s 748 mmHg 82%
    11:00 +6°C° 0 mm 5 m/s 749 mmHg 79%
    12:00 +6°C° 0.1 mm 4 m/s 749 mmHg 80%
    13:00 +6°C° 0.1 mm 4 m/s 749 mmHg 80%
    14:00 +6°C° 0.1 mm 4 m/s 749 mmHg 81%
    15:00 +5°C° 0.1 mm 4 m/s 749 mmHg 83%
    16:00 +5°C° 0.1 mm 4 m/s 750 mmHg 85%
    17:00 +4°C° 0.1 mm 4 m/s 751 mmHg 87%
    18:00 +4°C° 0 mm 4 m/s 751 mmHg 87%
    19:00 +4°C° 0 mm 4 m/s 752 mmHg 88%
    20:00 +3°C° 0 mm 3 m/s 752 mmHg 88%
    21:00 +3°C° 0 mm 3 m/s 753 mmHg 89%
    22:00 +3°C° 0 mm 3 m/s 753 mmHg 89%
    23:00 +3°C° 0 mm 3 m/s 754 mmHg 89%

    17 Décembre, Lundi

    Heure Température Précipitation Vent Pression Humidité
    00:00 +3°C° 0 mm 3 m/s 754 mmHg 89%
    01:00 +3°C° 0 mm 3 m/s 754 mmHg 89%
    02:00 +3°C° 0 mm 3 m/s 754 mmHg 89%
    03:00 +3°C° 0 mm 3 m/s 754 mmHg 89%
    04:00 +3°C° 0 mm 4 m/s 754 mmHg 89%
    05:00 +4°C° 0 mm 4 m/s 753 mmHg 89%
    06:00 +5°C° 0 mm 5 m/s 753 mmHg 89%
    07:00 +5°C° 0 mm 6 m/s 753 mmHg 88%
    08:00 +7°C° 0 mm 6 m/s 753 mmHg 88%
    09:00 +8°C° 0.1 mm 7 m/s 752 mmHg 87%
    10:00 +7°C° 0.1 mm 8 m/s 751 mmHg 87%
    11:00 +8°C° 0.1 mm 9 m/s 750 mmHg 86%
    12:00 +9°C° 0.8 mm 10 m/s 749 mmHg 87%
    13:00 +9°C° 0.8 mm 10 m/s 747 mmHg 87%
    14:00 +9°C° 0.8 mm 11 m/s 746 mmHg 87%
    15:00 +9°C° 2.3 mm 11 m/s 746 mmHg 88%
    16:00 +9°C° 2.3 mm 11 m/s 745 mmHg 88%
    17:00 +9°C° 2.3 mm 11 m/s 745 mmHg 89%
    18:00 +9°C° 2.8 mm 8 m/s 745 mmHg 90%
    19:00 +8°C° 2.8 mm 6 m/s 744 mmHg 92%
    20:00 +8°C° 2.8 mm 4 m/s 744 mmHg 93%
    21:00 +7°C° 1 mm 4 m/s 744 mmHg 93%
    22:00 +7°C° 1 mm 4 m/s 743 mmHg 93%
    23:00 +6°C° 1 mm 4 m/s 743 mmHg 93%

    18 Décembre, Mardi

    Heure Température Précipitation Vent Pression Humidité
    00:00 +7°C° 2.2 mm 3 m/s 742 mmHg 94%
    01:00 +5°C° 2.2 mm 3 m/s 741 mmHg 94%
    02:00 +5°C° 2.2 mm 3 m/s 740 mmHg 95%
    03:00 +6°C° 0.4 mm 2 m/s 740 mmHg 94%
    04:00 +6°C° 0.4 mm 2 m/s 739 mmHg 93%
    05:00 +6°C° 0.4 mm 2 m/s 739 mmHg 93%
    06:00 +5°C° 0.1 mm 3 m/s 739 mmHg 92%
    07:00 +5°C° 0.1 mm 3 m/s 740 mmHg 92%
    08:00 +5°C° 0.1 mm 3 m/s 740 mmHg 92%
    09:00 +6°C° 0.1 mm 4 m/s 740 mmHg 89%
    10:00 +7°C° 0.1 mm 4 m/s 741 mmHg 86%
    11:00 +7°C° 0.1 mm 5 m/s 741 mmHg 83%
    12:00 +7°C° 0.2 mm 5 m/s 741 mmHg 83%
    13:00 +7°C° 0.2 mm 5 m/s 741 mmHg 83%
    14:00 +7°C° 0.2 mm 5 m/s 741 mmHg 83%
    15:00 +6°C° 0.1 mm 5 m/s 742 mmHg 83%
    16:00 +5°C° 0.1 mm 5 m/s 742 mmHg 83%
    17:00 +3°C° 0.1 mm 5 m/s 742 mmHg 83%
    18:00 +4°C° 0.7 mm 6 m/s 742 mmHg 83%
    19:00 +4°C° 0.7 mm 6 m/s 743 mmHg 83%
    20:00 +4°C° 0.7 mm 7 m/s 743 mmHg 83%
    21:00 +4°C° 0.1 mm 6 m/s 743 mmHg 84%
    22:00 +4°C° 0.1 mm 6 m/s 744 mmHg 84%
    23:00 +4°C° 0.1 mm 6 m/s 744 mmHg 84%

    19 Décembre, Mercredi

    Heure Température Précipitation Vent Pression Humidité
    00:00 +3°C° 0 mm 5 m/s 744 mmHg 84%
    01:00 +3°C° 0 mm 5 m/s 744 mmHg 84%
    02:00 +3°C° 0 mm 5 m/s 744 mmHg 84%
    03:00 +3°C° 0.2 mm 6 m/s 743 mmHg 83%
    04:00 +3°C° 0.2 mm 6 m/s 743 mmHg 82%
    05:00 +4°C° 0.2 mm 7 m/s 743 mmHg 81%
    06:00 +4°C° 0.7 mm 7 m/s 742 mmHg 82%
    07:00 +5°C° 0.7 mm 7 m/s 742 mmHg 83%
    08:00 +5°C° 0.7 mm 8 m/s 742 mmHg 84%
    09:00 +5°C° 0.8 mm 8 m/s 742 mmHg 84%
    10:00 +6°C° 0.8 mm 8 m/s 742 mmHg 83%
    11:00 +6°C° 0.8 mm 8 m/s 742 mmHg 83%
    12:00 +6°C° 0.6 mm 8 m/s 742 mmHg 83%
    13:00 +6°C° 0.6 mm 8 m/s 741 mmHg 82%
    14:00 +6°C° 0.6 mm 8 m/s 741 mmHg 82%
    15:00 +5°C° 0.5 mm 7 m/s 741 mmHg 83%
    16:00 +5°C° 0.5 mm 7 m/s 741 mmHg 84%
    17:00 +5°C° 0.5 mm 7 m/s 741 mmHg 84%
    18:00 +5°C° 0.3 mm 6 m/s 742 mmHg 85%
    19:00 +5°C° 0.3 mm 6 m/s 742 mmHg 85%
    20:00 +5°C° 0.3 mm 6 m/s 742 mmHg 85%
    21:00 +5°C° 0.3 mm 6 m/s 743 mmHg 85%
    22:00 +5°C° 0.3 mm 6 m/s 743 mmHg 84%
    23:00 +5°C° 0.3 mm 6 m/s 744 mmHg 84%
    Voir plus